DWEW6128 Weather Reports


Display with metric or nautical units.
time (UTC)temp
F
wind
direction
speed
MPH
gust
MPH
rain 1hr
in
rain 24hr
in
rain mn
in
humidity
%
barometer
mb
20200528131100 74 0 3.0 9.0 0.00 0.00 0.00 41 1021.3
20200528130600 73 0 4.0 13.0 0.00 0.00 0.00 41 1021.3
20200528130102 73 0 3.0 8.0 0.00 0.00 0.00 42 1021.3
20200528125559 73 0 5.0 10.0 0.00 0.00 0.00 41 1021.7
20200528125100 74 0 5.0 12.0 0.00 0.00 0.00 41 1021.7
20200528124600 74 0 3.0 6.0 0.00 0.00 0.00 42 1021.7
20200528124100 73 0 4.0 12.0 0.00 0.00 0.00 43 1021.7
20200528123600 73 0 3.0 9.0 0.00 0.00 0.00 43 1021.7
20200528123100 73 0 4.0 6.0 0.00 0.00 0.00 43 1021.7
20200528122559 73 0 3.0 12.0 0.00 0.00 0.00 44 1021.7
20200528122101 73 0 3.0 9.0 0.00 0.00 0.00 44 1021.7
20200528121600 73 0 5.0 9.0 0.00 0.00 0.00 45 1021.7
20200528121059 73 0 3.0 9.0 0.00 0.00 0.00 46 1021.7
20200528120559 73 0 2.0 6.0 0.00 0.00 0.00 47 1021.7
20200528120102 73 0 4.0 10.0 0.00 0.00 0.00 47 1021.7
20200528115600 74 0 3.0 8.0 0.00 0.00 0.00 46 1022.1
20200528115100 74 0 3.0 9.0 0.00 0.00 0.00 45 1022.1
20200528114600 74 0 3.0 9.0 0.00 0.00 0.00 45 1022.1
20200528114100 73 0 2.0 5.0 0.00 0.00 0.00 45 1022.1
20200528113600 73 0 3.0 12.0 0.00 0.00 0.00 46 1022.1
20200528113100 73 0 3.0 12.0 0.00 0.00 0.00 46 1022.1
20200528112601 73 0 5.0 9.0 0.00 0.00 0.00 46 1022.1
20200528112100 72 0 5.0 10.0 0.00 0.00 0.00 45 1022.1
20200528111601 73 0 5.0 10.0 0.00 0.00 0.00 45 1022.1
20200528111101 73 0 5.0 8.0 0.00 0.00 0.00 45 1022.1
20200528110601 72 0 3.0 8.0 0.00 0.00 0.00 47 1022.1
20200528110103 72 0 5.0 13.0 0.00 0.00 0.00 46 1022.2
20200528105600 72 0 4.0 12.0 0.00 0.00 0.00 46 1022.8
20200528105101 72 0 4.0 10.0 0.00 0.00 0.00 46 1022.8
20200528104600 72 0 4.0 8.0 0.00 0.00 0.00 47 1022.8
20200528104101 72 0 3.0 8.0 0.00 0.00 0.00 47 1022.8
20200528103600 72 0 5.0 9.0 0.00 0.00 0.00 50 1022.8
20200528103101 72 0 5.0 10.0 0.00 0.00 0.00 47 1022.8
20200528102600 72 0 3.0 10.0 0.00 0.00 0.00 49 1022.8
20200528102101 72 0 3.0 12.0 0.00 0.00 0.00 47 1022.8
20200528101601 72 0 5.0 12.0 0.00 0.00 0.00 49 1022.8
20200528101102 71 0 4.0 9.0 0.00 0.00 0.00 51 1022.8
20200528100602 71 0 4.0 7.0 0.00 0.00 0.00 50 1022.8
20200528100104 71 0 4.0 12.0 0.00 0.00 0.00 48 1022.8
20200528095601 71 0 3.0 14.0 0.00 0.00 0.00 47 1022.8
20200528095102 72 0 5.0 14.0 0.00 0.00 0.00 46 1022.8
20200528094601 72 0 3.0 8.0 0.00 0.00 0.00 46 1022.8
20200528094102 72 0 5.0 14.0 0.00 0.00 0.00 42 1022.8
20200528093602 72 0 3.0 8.0 0.00 0.00 0.00 42 1022.8
20200528093101 72 0 4.0 10.0 0.00 0.00 0.00 42 1023.3
20200528092602 72 0 5.0 10.0 0.00 0.00 0.00 44 1023.3
20200528092101 72 0 2.0 8.0 0.00 0.00 0.00 44 1023.3
20200528091602 71 0 3.0 8.0 0.00 0.00 0.00 46 1023.3
20200528091102 71 0 4.0 9.0 0.00 0.00 0.00 45 1023.3
20200528090603 70 0 2.0 7.0 0.00 0.00 0.00 48 1023.3
20200528090104 70 0 3.0 8.0 0.00 0.00 0.00 46 1023.3
20200528085603 70 0 5.0 9.0 0.00 0.00 0.00 47 1023.3
20200528085102 70 0 3.0 7.0 0.00 0.00 0.00 50 1023.3
20200528084602 69 0 5.0 9.0 0.00 0.00 0.00 50 1023.3
20200528084102 70 0 3.0 5.0 0.00 0.00 0.00 52 1023.3
20200528083603 70 0 2.0 5.0 0.00 0.00 0.00 54 1023.3
20200528083103 69 0 3.0 6.0 0.00 0.00 0.00 53 1023.3
20200528082603 69 0 2.0 10.0 0.00 0.00 0.00 52 1023.3
20200528082102 69 0 3.0 10.0 0.00 0.00 0.00 53 1023.3
20200528081602 69 0 3.0 8.0 0.00 0.00 0.00 57 1023.3
20200528081102 69 0 3.0 8.0 0.00 0.00 0.00 57 1023.3
20200528080602 68 0 2.0 6.0 0.00 0.00 0.00 58 1023.3
20200528080105 68 0 3.0 9.0 0.00 0.00 0.00 60 1023.3
20200528075603 68 0 4.0 13.0 0.00 0.00 0.00 60 1023.2
20200528075102 68 0 3.0 9.0 0.00 0.00 0.00 60 1023.2
20200528074603 68 0 3.0 12.0 0.00 0.00 0.00 60 1023.2
20200528074103 68 0 3.0 12.0 0.00 0.00 0.00 60 1023.0
20200528073603 68 0 5.0 9.0 0.00 0.00 0.00 59 1023.0
20200528073103 68 0 5.0 12.0 0.00 0.00 0.00 57 1023.0
20200528072603 68 0 3.0 7.0 0.00 0.00 0.00 56 1023.0
20200528072104 67 0 2.0 3.0 0.00 0.00 0.00 58 1023.0
20200528071603 67 0 3.0 5.0 0.00 0.00 0.00 59 1023.0
20200528071103 67 0 4.0 8.0 0.00 0.00 0.00 59 1023.3
20200528070603 66 0 3.0 7.0 0.00 0.00 0.00 61 1023.3
20200528070106 66 0 3.0 8.0 0.00 0.00 0.00 61 1023.3
20200528065604 66 0 2.0 3.0 0.00 0.00 0.00 63 1023.3
20200528065104 65 0 3.0 7.0 0.00 0.00 0.00 62 1023.3
20200528064604 65 0 4.0 12.0 0.00 0.00 0.00 63 1023.3
20200528064103 65 0 3.0 10.0 0.00 0.00 0.00 65 1023.3
20200528063604 64 0 3.0 9.0 0.00 0.00 0.00 67 1023.3
20200528063103 64 0 7.0 10.0 0.00 0.00 0.00 67 1023.3
20200528062603 64 0 5.0 8.0 0.00 0.00 0.00 67 1023.3
20200528062104 64 0 5.0 10.0 0.00 0.00 0.00 68 1023.3
20200528061604 63 0 5.0 12.0 0.00 0.00 0.00 69 1023.3
20200528061104 63 0 3.0 12.0 0.00 0.00 0.00 69 1023.5
20200528060604 63 0 5.0 10.0 0.00 0.00 0.00 70 1023.5
20200528060106 63 0 7.0 10.0 0.00 0.00 0.00 69 1023.5
20200528055606 63 0 5.0 7.0 0.00 0.00 0.00 70 1023.6
20200528055104 62 0 4.0 10.0 0.00 0.00 0.00 71 1023.6
20200528054604 62 0 5.0 12.0 0.00 0.00 0.00 71 1023.6
20200528054104 62 0 6.0 12.0 0.00 0.00 0.00 72 1023.6
20200528053605 61 0 2.0 6.0 0.00 0.00 0.00 73 1023.6
20200528053105 61 0 5.0 8.0 0.00 0.00 0.00 73 1023.6
20200528052604 61 0 4.0 8.0 0.00 0.00 0.00 73 1023.6
20200528052104 60 0 6.0 9.0 0.00 0.00 0.00 74 1023.6
20200528051605 60 0 6.0 9.0 0.00 0.00 0.00 74 1023.6
20200528051104 60 0 5.0 9.0 0.00 0.00 0.00 75 1023.6
20200528050605 59 0 5.0 9.0 0.00 0.00 0.00 76 1023.6
20200528050106 59 0 5.0 9.0 0.00 0.00 0.00 77 1023.6
20200528045607 59 0 4.0 6.0 0.00 0.00 0.00 78 1023.7
20200528045108 58 0 4.0 8.0 0.00 0.00 0.00 78 1023.7
20200528044608 58 0 3.0 8.0 0.00 0.00 0.00 79 1023.7
20200528044108 58 0 2.0 3.0 0.00 0.00 0.00 80 1023.3
20200528043607 57 292 2.0 7.0 0.00 0.00 0.00 81 1023.3
20200528043108 57 290 3.0 7.0 0.00 0.00 0.00 82 1023.3
20200528042608 57 279 3.0 6.0 0.00 0.00 0.00 82 1023.3
20200528042108 56 285 2.0 5.0 0.00 0.00 0.00 82 1023.3
20200528041608 56 283 2.0 3.0 0.00 0.00 0.00 82 1023.3
20200528041107 56 280 3.0 6.0 0.00 0.00 0.00 83 1023.3
20200528040607 56 278 3.0 5.0 0.00 0.00 0.00 83 1023.3
20200528040110 56 266 2.0 6.0 0.00 0.00 0.00 83 1023.2
20200528035607 55 283 3.0 5.0 0.00 0.00 0.00 82 1023.2
20200528035108 55 286 3.0 3.0 0.00 0.00 0.00 82 1023.2
20200528034607 55 278 3.0 5.0 0.00 0.00 0.00 82 1023.2
20200528034108 55 273 3.0 5.0 0.00 0.00 0.00 82 1023.2
20200528033607 55 0 3.0 6.0 0.00 0.00 0.00 82 1023.2
20200528033107 55 0 3.0 3.0 0.00 0.00 0.00 81 1023.2
20200528032607 55 0 2.0 5.0 0.00 0.00 0.00 81 1023.2
20200528032107 55 0 3.0 6.0 0.00 0.00 0.00 81 1023.2
20200528031608 55 0 2.0 3.0 0.00 0.00 0.00 81 1023.2
20200528031108 55 0 3.0 5.0 0.00 0.00 0.00 81 1023.2
20200528030607 55 0 3.0 5.0 0.00 0.00 0.00 81 1023.2
20200528030110 55 0 3.0 6.0 0.00 0.00 0.00 80 1023.2
20200528025608 55 0 3.0 5.0 0.00 0.00 0.00 80 1023.4
20200528025107 55 0 3.0 5.0 0.00 0.00 0.00 79 1023.4
20200528024607 56 0 2.0 5.0 0.00 0.00 0.00 78 1023.4
20200528024107 56 332 2.0 3.0 0.00 0.00 0.00 78 1023.4
20200528023607 56 278 3.0 5.0 0.00 0.00 0.00 78 1023.4
20200528023108 56 281 4.0 6.0 0.00 0.00 0.00 77 1023.4
20200528022608 56 283 3.0 6.0 0.00 0.00 0.00 77 1023.4
20200528022107 56 276 5.0 7.0 0.00 0.00 0.00 77 1023.4
20200528021608 56 284 3.0 6.0 0.00 0.00 0.00 76 1023.4
20200528021108 56 285 3.0 5.0 0.00 0.00 0.00 76 1023.4
20200528020608 56 281 3.0 6.0 0.00 0.00 0.00 76 1023.4
20200528020109 56 0 2.0 3.0 0.00 0.00 0.00 77 1023.4
20200528015608 56 0 3.0 6.0 0.00 0.00 0.00 77 1023.8
20200528015108 56 0 3.0 5.0 0.00 0.00 0.00 78 1023.8
20200528014608 56 0 3.0 6.0 0.00 0.00 0.00 78 1023.8
20200528014107 56 0 3.0 5.0 0.00 0.00 0.00 77 1023.8
20200528013607 56 0 2.0 3.0 0.00 0.00 0.00 77 1023.8
20200528013108 56 0 2.0 5.0 0.00 0.00 0.00 76 1023.8
20200528012608 57 0 3.0 6.0 0.00 0.00 0.00 75 1023.8
20200528012107 57 0 3.0 5.0 0.00 0.00 0.00 75 1023.8
20200528011607 58 0 3.0 5.0 0.00 0.00 0.00 74 1023.8
20200528011107 58 0 2.0 5.0 0.00 0.00 0.00 74 1023.8
20200528010607 58 0 3.0 6.0 0.00 0.00 0.00 74 1023.8
20200528010111 58 0 2.0 5.0 0.00 0.00 0.00 74 1023.8
20200528005607 58 0 3.0 6.0 0.00 0.00 0.00 74 1023.9
20200528005107 58 0 3.0 6.0 0.00 0.00 0.00 74 1023.9
20200528004607 59 0 3.0 6.0 0.00 0.00 0.00 74 1023.9
20200528004107 59 0 3.0 5.0 0.00 0.00 0.00 74 1023.9
20200528003607 60 0 3.0 6.0 0.00 0.00 0.00 74 1023.9
20200528003107 61 0 2.0 3.0 0.00 0.00 0.00 75 1023.9
20200528002607 61 0 2.0 3.0 0.00 0.00 0.00 76 1023.9
20200528002107 61 0 2.0 3.0 0.00 0.00 0.00 77 1024.0
20200528001607 61 0 3.0 7.0 0.00 0.00 0.00 77 1024.0
20200528001107 62 0 2.0 3.0 0.00 0.00 0.00 78 1024.0
20200528000607 61 0 2.0 7.0 0.00 0.00 0.00 78 1024.0
20200528000109 61 0 2.0 3.0 0.00 0.00 0.00 77 1024.0
20200527235607 61 0 2.0 5.0 0.00 0.00 0.00 77 1024.6
20200527235107 61 0 1.0 5.0 0.00 0.00 0.00 77 1024.6
20200527234607 62 0 2.0 3.0 0.00 0.00 0.00 77 1024.6
20200527234123 62 0 2.0 5.0 0.00 0.00 0.00 76 1024.6
20200527233607 62 0 2.0 3.0 0.00 0.00 0.00 76 1024.6
20200527233107 62 0 2.0 8.0 0.00 0.00 0.00 76 1024.6
20200527232607 62 0 2.0 7.0 0.00 0.00 0.00 76 1024.6
20200527232107 62 0 2.0 3.0 0.00 0.00 0.00 76 1024.6
20200527231607 62 0 3.0 5.0 0.00 0.00 0.00 76 1024.6
20200527231107 62 0 3.0 8.0 0.00 0.00 0.00 76 1024.6
20200527230607 62 0 2.0 8.0 0.00 0.00 0.00 75 1024.6
20200527230109 62 0 3.0 7.0 0.00 0.00 0.00 75 1024.6
20200527225607 62 0 3.0 5.0 0.00 0.00 0.00 75 1024.8
20200527225107 62 0 3.0 7.0 0.00 0.00 0.00 75 1024.8
20200527224607 62 0 3.0 9.0 0.00 0.00 0.00 74 1024.8
20200527224107 62 0 3.0 7.0 0.00 0.00 0.00 74 1024.8
20200527223607 62 0 2.0 5.0 0.00 0.00 0.00 74 1024.8
20200527223107 62 0 2.0 7.0 0.00 0.00 0.00 74 1024.8
20200527222607 62 0 2.0 5.0 0.00 0.00 0.00 74 1024.8
20200527222107 62 0 2.0 5.0 0.00 0.00 0.00 73 1024.8
20200527221607 62 0 2.0 5.0 0.00 0.00 0.00 73 1024.8
20200527221111 62 0 3.0 6.0 0.00 0.00 0.00 73 1024.8
20200527220607 62 0 3.0 6.0 0.00 0.00 0.00 73 1024.8
20200527220109 63 0 2.0 7.0 0.00 0.00 0.00 72 1024.9
20200527215607 63 0 3.0 8.0 0.00 0.00 0.00 72 1025.0
20200527215107 63 0 4.0 10.0 0.00 0.00 0.00 72 1025.0
20200527214608 63 0 2.0 7.0 0.00 0.00 0.00 72 1025.0
20200527214107 63 0 3.0 8.0 0.00 0.00 0.00 72 1025.0
20200527213606 63 0 4.0 10.0 0.00 0.00 0.00 72 1025.0
20200527213107 63 0 3.0 6.0 0.00 0.00 0.00 72 1025.0
20200527212607 63 0 3.0 7.0 0.00 0.00 0.00 72 1025.0
20200527212106 63 0 2.0 6.0 0.00 0.00 0.00 72 1024.9
20200527211607 63 0 3.0 7.0 0.00 0.00 0.00 73 1024.9
20200527211107 63 0 1.0 6.0 0.00 0.00 0.00 73 1024.9
20200527210607 63 0 2.0 5.0 0.00 0.00 0.00 73 1024.9
20200527210109 63 0 2.0 6.0 0.00 0.00 0.00 73 1024.9
20200527205607 63 0 2.0 5.0 0.00 0.00 0.00 73 1024.9
20200527205107 63 0 3.0 9.0 0.00 0.00 0.00 73 1024.9
20200527204607 63 0 2.0 3.0 0.00 0.00 0.00 73 1024.9
20200527204107 63 0 2.0 5.0 0.00 0.00 0.00 72 1024.9
20200527203606 63 0 2.0 7.0 0.00 0.00 0.00 72 1024.9
20200527203107 63 0 3.0 8.0 0.00 0.00 0.00 71 1024.9
20200527202607 63 0 2.0 7.0 0.00 0.00 0.00 71 1024.9
20200527202107 63 0 2.0 5.0 0.00 0.00 0.00 70 1024.9
20200527201607 63 0 2.0 6.0 0.00 0.00 0.00 70 1024.9
20200527201106 63 0 2.0 6.0 0.00 0.00 0.00 69 1024.9
20200527200607 63 0 2.0 5.0 0.00 0.00 0.00 69 1024.9
20200527200109 63 0 2.0 6.0 0.00 0.00 0.00 68 1024.9
20200527195608 63 0 2.0 7.0 0.00 0.00 0.00 68 1024.9
20200527195108 63 0 2.0 5.0 0.00 0.00 0.00 68 1024.5
20200527194607 63 0 2.0 5.0 0.00 0.00 0.00 67 1024.5
20200527194107 63 0 2.0 3.0 0.00 0.00 0.00 67 1024.5
20200527193607 63 0 2.0 3.0 0.00 0.00 0.00 67 1024.5
20200527193107 63 0 2.0 3.0 0.00 0.00 0.00 67 1024.5
20200527192606 63 0 2.0 6.0 0.00 0.00 0.00 67 1024.5
20200527192107 63 0 2.0 6.0 0.00 0.00 0.00 66 1024.5
20200527191606 63 0 2.0 3.0 0.00 0.00 0.00 66 1024.5
20200527191107 64 0 2.0 3.0 0.00 0.00 0.00 65 1024.5
20200527190607 64 0 2.0 5.0 0.00 0.00 0.00 65 1024.5
20200527190109 64 0 2.0 6.0 0.00 0.00 0.00 64 1024.5
20200527185606 64 0 2.0 6.0 0.00 0.00 0.00 64 1024.4
20200527185107 64 0 3.0 5.0 0.00 0.00 0.00 64 1024.1
20200527184607 64 0 2.0 7.0 0.00 0.00 0.00 64 1024.1
20200527184107 64 0 3.0 8.0 0.00 0.00 0.00 63 1024.1
20200527183606 64 0 4.0 10.0 0.00 0.00 0.00 63 1024.1
20200527183106 64 0 5.0 10.0 0.00 0.00 0.00 64 1024.1
20200527182606 65 0 3.0 7.0 0.00 0.00 0.00 64 1024.1
20200527182106 65 0 2.0 6.0 0.00 0.00 0.00 64 1024.1
20200527181607 65 0 3.0 9.0 0.00 0.00 0.00 63 1024.1
20200527181107 65 0 3.0 7.0 0.00 0.00 0.00 62 1024.1
20200527180607 65 0 3.0 7.0 0.00 0.00 0.00 62 1024.1
20200527180109 65 0 5.0 8.0 0.00 0.00 0.00 61 1024.1
20200527175607 65 0 2.0 7.0 0.00 0.00 0.00 61 1024.1
20200527175107 66 0 4.0 9.0 0.00 0.00 0.00 61 1023.8
20200527174606 66 0 3.0 9.0 0.00 0.00 0.00 60 1023.8
20200527174107 66 0 4.0 13.0 0.00 0.00 0.00 59 1023.8
20200527173607 66 0 3.0 10.0 0.00 0.00 0.00 56 1023.8
20200527173107 66 0 5.0 13.0 0.00 0.00 0.00 55 1023.8
20200527172607 66 0 5.0 12.0 0.00 0.00 0.00 54 1023.8
20200527172107 66 0 6.0 9.0 0.00 0.00 0.00 52 1023.8
20200527171607 67 0 6.0 10.0 0.00 0.00 0.00 50 1023.8
20200527171107 67 0 5.0 12.0 0.00 0.00 0.00 48 1023.8
20200527170606 67 0 3.0 12.0 0.00 0.00 0.00 48 1023.8
20200527170109 67 0 4.0 10.0 0.00 0.00 0.00 48 1023.8
20200527165607 67 0 3.0 12.0 0.00 0.00 0.00 48 1023.8
20200527165107 67 0 4.0 8.0 0.00 0.00 0.00 49 1023.8
20200527164608 67 0 5.0 10.0 0.00 0.00 0.00 48 1023.8
20200527164107 68 0 4.0 12.0 0.00 0.00 0.00 49 1023.8
20200527163606 68 0 5.0 12.0 0.00 0.00 0.00 49 1023.8
20200527163107 68 0 6.0 12.0 0.00 0.00 0.00 48 1023.8
20200527162606 69 0 5.0 8.0 0.00 0.00 0.00 49 1023.8
20200527162107 68 0 3.0 8.0 0.00 0.00 0.00 49 1023.8
20200527161606 68 0 6.0 12.0 0.00 0.00 0.00 48 1023.8
20200527161107 69 0 5.0 10.0 0.00 0.00 0.00 48 1023.8
20200527160607 69 0 5.0 10.0 0.00 0.00 0.00 48 1023.8
20200527160108 69 0 5.0 10.0 0.00 0.00 0.00 48 1023.8
20200527155607 69 0 6.0 17.0 0.00 0.00 0.00 47 1023.8
20200527155107 69 0 5.0 12.0 0.00 0.00 0.00 47 1023.8
20200527154606 69 0 5.0 10.0 0.00 0.00 0.00 47 1023.8
20200527154107 69 0 5.0 13.0 0.00 0.00 0.00 47 1023.8
20200527153606 69 0 6.0 13.0 0.00 0.00 0.00 46 1023.8
20200527153107 70 0 5.0 13.0 0.00 0.00 0.00 46 1023.8
20200527152607 70 0 5.0 12.0 0.00 0.00 0.00 44 1023.8
20200527152106 70 0 5.0 12.0 0.00 0.00 0.00 42 1023.8
20200527151607 69 0 4.0 17.0 0.00 0.00 0.00 43 1023.8
20200527151107 69 0 6.0 12.0 0.00 0.00 0.00 43 1023.8
20200527150607 70 0 7.0 15.0 0.00 0.00 0.00 43 1023.9
20200527150108 70 0 7.0 12.0 0.00 0.00 0.00 42 1023.9
20200527145607 71 0 7.0 12.0 0.00 0.00 0.00 43 1024.2
20200527145107 71 0 5.0 10.0 0.00 0.00 0.00 43 1024.2
20200527144607 71 0 4.0 10.0 0.00 0.00 0.00 44 1024.2
20200527144106 70 0 5.0 12.0 0.00 0.00 0.00 44 1024.2
20200527143606 70 0 5.0 14.0 0.00 0.00 0.00 43 1024.2
20200527143106 70 0 7.0 14.0 0.00 0.00 0.00 42 1024.2
20200527142607 70 0 5.0 14.0 0.00 0.00 0.00 44 1024.2
20200527142107 71 0 5.0 12.0 0.00 0.00 0.00 45 1024.3
20200527141607 71 0 5.0 12.0 0.00 0.00 0.00 43 1024.3
20200527141107 71 0 6.0 13.0 0.00 0.00 0.00 44 1024.3
20200527140606 71 0 4.0 12.0 0.00 0.00 0.00 44 1024.3
20200527140109 71 0 7.0 12.0 0.00 0.00 0.00 44 1024.3
20200527135607 71 0 5.0 10.0 0.00 0.00 0.00 42 1024.3
20200527135107 71 0 5.0 12.0 0.00 0.00 0.00 42 1024.3
20200527134607 71 0 6.0 10.0 0.00 0.00 0.00 39 1024.3
20200527134107 71 0 5.0 14.0 0.00 0.00 0.00 39 1024.3
20200527133606 71 0 5.0 12.0 0.00 0.00 0.00 42 1024.3
20200527133106 71 0 5.0 10.0 0.00 0.00 0.00 42 1024.5
20200527132607 71 0 5.0 13.0 0.00 0.00 0.00 42 1024.5
20200527132107 71 0 3.0 10.0 0.00 0.00 0.00 44 1024.5
20200527131606 71 0 5.0 12.0 0.00 0.00 0.00 41 1024.5